The Dalles, WA

4:32 PM PDT on October 22, 2019 (GMT -0700)
Columbia Gorge Regional-The Dalles

Weather History for KDLS - September, 2019

Change the Weather History Date:

Sunday, September 15, 2019

  Actual Average Record
Temperature  
Mean Temperature 60 °F -  
Max Temperature 66 °F 79 °F 95 °F (1967)
Min Temperature 55 °F 50 °F 39 °F (1970)
Degree Days  
Heating Degree Days 4    
Growing Degree Days 10 (Base 50)    
Moisture  
Dew Point 52 °F    
Average Humidity 75    
Maximum Humidity 90    
Minimum Humidity 58    
Precipitation  
Precipitation 0.15 in - - ()
Sea Level Pressure  
Sea Level Pressure 29.76 in    
Wind  
Wind Speed 8 mph (WNW)    
Max Wind Speed 22 mph    
Max Gust Speed 31 mph    
Visibility 10 miles    
Events Rain    
Averages and records for this station are not official NWS values.
T = Trace of Precipitation, MM = Missing Value Source: NWS Daily Summary

Daily Weather History Graph

Daily Weather History Graph

Search for Another Location

Airport or City:

Astronomy

Sep. 15, 2019 Rise Set
Actual Time 6:42 AM PDT 7:16 PM PDT
Civil Twilight 6:13 AM PDT 7:45 PM PDT
Nautical Twilight 5:37 AM PDT 8:21 PM PDT
Astronomical Twilight 5:00 AM PDT 8:57 PM PDT
Moon 8:23 PM PDT (9/15) 7:59 AM PDT (9/15)
Length of Visible Light 13h 32m
Length of Day
12h 33m
Full, 98% of the Moon is Illuminated
Sep 15
Full
Sep 21
Last Quarter
Sep 28
New
Oct 5
First Quarter
Oct 13
Full

Hourly Weather History & Observations

Time (PDT) Temp. Dew Point Humidity Pressure Visibility Wind Dir Wind Speed Gust Speed Precip Events Conditions
12:53 AM 66.0 °F 52.0 °F 60% 29.79 in 10.0 mi West 11.5 mph - N/A   Clear
1:53 AM 64.0 °F 51.1 °F 63% 29.78 in 10.0 mi WNW 8.1 mph - N/A   Clear
2:53 AM 62.1 °F 51.1 °F 67% 29.77 in 10.0 mi WSW 11.5 mph - N/A   Clear
3:53 AM 59.0 °F 51.1 °F 75% 29.76 in 10.0 mi South 3.5 mph - N/A   Clear
4:53 AM 55.9 °F 48.9 °F 77% 29.76 in 10.0 mi ESE 3.5 mph - N/A   Clear
5:53 AM 55.0 °F 48.9 °F 80% 29.75 in 10.0 mi East 8.1 mph - N/A   Clear
6:53 AM 55.0 °F 48.9 °F 80% 29.74 in 10.0 mi East 5.8 mph - N/A   Clear
7:53 AM 57.9 °F 50.0 °F 75% 29.73 in 10.0 mi ESE 4.6 mph - N/A   Partly Cloudy
8:53 AM 62.1 °F 51.1 °F 67% 29.74 in 10.0 mi Calm Calm - N/A   Scattered Clouds
9:53 AM 64.0 °F 52.0 °F 65% 29.74 in 10.0 mi West 4.6 mph - N/A   Overcast
10:53 AM 61.0 °F 55.0 °F 81% 29.76 in 4.0 mi WNW 21.9 mph 31.1 mph 0.03 in Rain Rain
11:53 AM 64.0 °F 53.1 °F 67% 29.75 in 10.0 mi WNW 20.7 mph 25.3 mph 0.00 in   Overcast
12:53 PM 63.0 °F 48.9 °F 60% 29.76 in 10.0 mi WNW 17.3 mph - N/A   Overcast
1:53 PM 64.0 °F 48.9 °F 58% 29.77 in 10.0 mi NW 17.3 mph - N/A   Overcast
2:53 PM 64.0 °F 48.9 °F 58% 29.76 in 10.0 mi NW 16.1 mph 26.5 mph N/A   Overcast
3:53 PM 61.0 °F 51.1 °F 70% 29.77 in 10.0 mi WNW 10.4 mph - 0.00 in Rain Light Rain
4:53 PM 59.0 °F 54.0 °F 83% 29.76 in 6.0 mi Calm Calm - 0.07 in Rain Light Rain
5:53 PM 59.0 °F 55.0 °F 87% 29.76 in 10.0 mi SSW 5.8 mph - 0.02 in   Overcast
6:53 PM 57.9 °F 54.0 °F 87% 29.77 in 10.0 mi SSE 4.6 mph - 0.01 in Rain Light Rain
7:53 PM 57.0 °F 54.0 °F 89% 29.78 in 10.0 mi Calm Calm - 0.00 in   Overcast
8:53 PM 57.0 °F 54.0 °F 89% 29.78 in 10.0 mi East 4.6 mph - 0.01 in   Overcast
9:53 PM 57.0 °F 53.1 °F 87% 29.79 in 10.0 mi ENE 3.5 mph - 0.01 in   Overcast
10:53 PM 55.9 °F 53.1 °F 90% 29.79 in 10.0 mi NE 4.6 mph - N/A   Mostly Cloudy
11:53 PM 57.0 °F 53.1 °F 87% 29.80 in 10.0 mi Calm Calm - N/A   Overcast